Tracking 20628 objects as of 6-Apr-2020
HD Live streaming from Space Station
objects crossing your sky now

COSMOS 304

Track COSMOS 304 now!
10-day predictions
COSMOS 304 is classified as:


NORAD ID: 4138
Int'l Code: 1969-091A
Perigee: 736.3 km
Apogee: 755.4 km
Inclination: 74.0 °
Period: 99.6 minutes
Semi major axis: 7116 km
RCS: 1.933 m2 (large)
Launch date: October 21, 1969
Source: Commonwealth of Independent States (former USSR) (CIS)
Launch site: PLESETSK MISSILE AND SPACE COMPLEX (PKMTR)
aabbcc
Your satellite tracking list
Your tracking list is empty




NASA's NSSDC Master Catalog

Two Line Element Set (TLE):
1  4138U 69091A   20096.55993434 +.00000022 +00000-0 +13790-4 0  9998
2  4138 074.0381 135.1159 0013391 337.3593 022.6973 14.46016899660544
Source of the keplerian elements: AFSPC